Overview Statistics Trail Chart Weather Telemetry Raw packets
 

This is the latest recevied weather packets stored in our database for station/object IZ5MJO-13. If no packets are shown the sender has not sent any weather packets the latest 10 day(s).

<< 6 7 8 9 10 11 12 >>
Time Temp. Humidity Pressure Rain* Wind** Luminosity Snow
1788442520 38.33° C 26% 1008 hPa - - - -
1788441620 37.78° C 31% 1008.1 hPa - - - -
1788441155 36.67° C 33% 1008.3 hPa - - - -
1788441119 36.67° C 31% 1008.5 hPa - - - -
1788441103 36.11° C 41% 1008.6 hPa - - - -
1788440720 36.11° C 33% 1008.2 hPa - - - -
1788439819 36.67° C 33% 1008.3 hPa - - - -
1788438919 37.78° C 36% 1008.4 hPa - - - -
1788438019 36.67° C 31% 1008.5 hPa - - - -
1788437119 36.11° C 41% 1008.6 hPa - - - -
1788436225 34.44° C 32% 1008.6 hPa - - - -
1788435325 33.33° C 43% 1008.6 hPa - - - -
1788434424 33.33° C 44% 1008.7 hPa - - - -
1788433524 32.22° C 42% 1009.1 hPa - - - -
1788432623 31.11° C 45% 1009.2 hPa - - - -
1788431723 30° C 44% 1009.5 hPa - - - -
1788430823 30° C 45% 1009.5 hPa - - - -
1788429922 29.44° C 46% 1009.7 hPa - - - -
1788429022 28.89° C 47% 1009.9 hPa - - - -
1788428122 28.33° C 49% 1009.8 hPa - - - -
1788427222 27.22° C 54% 1009.8 hPa - - - -
1788426322 26.67° C 56% 1009.8 hPa - - - -
1788425421 26.11° C 58% 1009.8 hPa - - - -
1788424521 25.56° C 58% 1009.7 hPa - - - -
1788423621 25° C 60% 1009.6 hPa - - - -

* Rain since midnight (hover to see other rain measurements)
** Current wind speed in m/s (hover to see current wind gust speed)